Time,TemperatureF,DewpointF,PressureIn,WindDirection,WindDirectionDegrees,WindSpeedMPH,WindSpeedGustMPH,Humidity,HourlyPrecipIn,Conditions,Clouds,dailyrainin,SoftwareType,DateUTC
2013-02-23 00:01:00,27.0,24.0,-100.00,West,272,4.0,26.0,89,0.00,,,0.03,,2013-02-23 06:01:00,
2013-02-23 00:11:00,27.0,24.0,-100.00,West,272,4.0,26.0,89,0.00,,,0.03,,2013-02-23 06:11:00,
2013-02-23 00:22:00,27.0,24.0,-100.00,West,272,4.0,26.0,89,0.00,,,0.03,,2013-02-23 06:22:00,
2013-02-23 00:52:00,26.0,23.0,-100.00,West,272,0.0,16.0,87,0.00,,,0.03,,2013-02-23 06:52:00,
2013-02-23 01:01:00,26.0,23.0,-100.00,West,272,0.0,16.0,87,0.00,,,0.03,,2013-02-23 07:01:00,
2013-02-23 01:11:00,26.0,23.0,-100.00,West,272,0.0,16.0,87,0.00,,,0.03,,2013-02-23 07:11:00,
2013-02-23 01:21:00,26.0,23.0,-100.00,West,272,0.0,16.0,87,0.00,,,0.03,,2013-02-23 07:21:00,
2013-02-23 01:52:00,26.0,22.0,-100.00,West,274,0.0,12.0,84,0.00,,,0.03,,2013-02-23 07:52:00,
2013-02-23 02:01:00,26.0,22.0,-100.00,West,274,0.0,12.0,84,0.00,,,0.03,,2013-02-23 08:01:00,
2013-02-23 02:11:00,26.0,22.0,-100.00,West,274,0.0,12.0,84,0.00,,,0.03,,2013-02-23 08:11:00,
2013-02-23 02:21:00,26.0,22.0,-100.00,West,274,0.0,12.0,84,0.00,,,0.03,,2013-02-23 08:21:00,
2013-02-23 02:52:00,25.0,21.0,-100.00,WSW,248,3.0,14.0,85,0.00,,,0.03,,2013-02-23 08:52:00,
2013-02-23 03:01:00,25.0,21.0,-100.00,WSW,248,3.0,14.0,85,0.00,,,0.03,,2013-02-23 09:01:00,
2013-02-23 03:11:00,25.0,21.0,-100.00,WSW,248,3.0,14.0,85,0.00,,,0.03,,2013-02-23 09:11:00,
2013-02-23 03:21:00,25.0,21.0,-100.00,WSW,248,3.0,14.0,85,0.00,,,0.03,,2013-02-23 09:21:00,
2013-02-23 03:52:00,25.0,21.0,-100.00,WSW,249,0.0,16.0,86,0.00,,,0.02,,2013-02-23 09:52:00,
2013-02-23 04:01:00,25.0,21.0,-100.00,WSW,249,0.0,16.0,86,0.00,,,0.02,,2013-02-23 10:01:00,
2013-02-23 04:11:00,25.0,21.0,-100.00,WSW,249,0.0,16.0,86,0.00,,,0.02,,2013-02-23 10:11:00,
2013-02-23 04:21:00,25.0,21.0,-100.00,WSW,249,0.0,16.0,86,0.00,,,0.02,,2013-02-23 10:21:00,
2013-02-23 04:52:00,25.0,22.0,-100.00,WSW,250,10.0,28.0,87,0.00,,,0.01,,2013-02-23 10:52:00,
2013-02-23 05:02:00,25.0,22.0,-100.00,WSW,250,10.0,28.0,87,0.00,,,0.01,,2013-02-23 11:02:00,
2013-02-23 05:11:00,25.0,22.0,-100.00,WSW,250,10.0,28.0,87,0.00,,,0.01,,2013-02-23 11:11:00,
2013-02-23 05:21:00,25.0,22.0,-100.00,WSW,250,10.0,28.0,87,0.00,,,0.01,,2013-02-23 11:21:00,
2013-02-23 05:52:00,24.0,20.0,-100.00,WSW,257,0.0,29.0,86,0.00,,,0.00,,2013-02-23 11:52:00,
2013-02-23 06:02:00,24.0,20.0,-100.00,WSW,257,0.0,29.0,86,0.00,,,0.00,,2013-02-23 12:02:00,
2013-02-23 06:11:00,24.0,20.0,-100.00,WSW,257,0.0,29.0,86,0.00,,,0.00,,2013-02-23 12:11:00,
2013-02-23 06:21:00,24.0,20.0,-100.00,WSW,257,0.0,29.0,86,0.00,,,0.00,,2013-02-23 12:21:00,
2013-02-23 06:52:00,24.0,21.0,-100.00,WSW,246,0.0,10.0,88,0.00,,,0.00,,2013-02-23 12:52:00,
2013-02-23 07:01:00,24.0,21.0,-100.00,WSW,246,0.0,10.0,88,0.00,,,0.00,,2013-02-23 13:01:00,
2013-02-23 07:11:00,24.0,21.0,-100.00,WSW,246,0.0,10.0,88,0.00,,,0.00,,2013-02-23 13:11:00,
2013-02-23 07:22:00,24.0,21.0,-100.00,WSW,246,0.0,10.0,88,0.00,,,0.00,,2013-02-23 13:22:00,
2013-02-23 07:52:00,24.0,21.0,-100.00,WSW,254,0.0,15.0,88,0.00,,,0.00,,2013-02-23 13:52:00,
2013-02-23 08:02:00,24.0,21.0,-100.00,WSW,254,0.0,15.0,88,0.00,,,0.00,,2013-02-23 14:02:00,
2013-02-23 08:11:00,24.0,21.0,-100.00,WSW,254,0.0,15.0,88,0.00,,,0.00,,2013-02-23 14:11:00,
2013-02-23 08:21:00,24.0,21.0,-100.00,WSW,254,0.0,15.0,88,0.00,,,0.00,,2013-02-23 14:21:00,
2013-02-23 08:52:00,24.0,21.0,-100.00,WSW,255,0.0,0.0,87,0.00,,,0.00,,2013-02-23 14:52:00,
2013-02-23 09:02:00,24.0,21.0,-100.00,WSW,255,0.0,0.0,87,0.00,,,0.00,,2013-02-23 15:02:00,
2013-02-23 09:11:00,24.0,21.0,-100.00,WSW,255,0.0,0.0,87,0.00,,,0.00,,2013-02-23 15:11:00,
2013-02-23 09:22:00,24.0,21.0,-100.00,WSW,255,0.0,0.0,87,0.00,,,0.00,,2013-02-23 15:22:00,
2013-02-23 09:52:00,25.0,21.0,-100.00,West,264,0.0,4.0,84,0.00,,,0.00,,2013-02-23 15:52:00,
2013-02-23 10:01:00,25.0,21.0,-100.00,West,264,0.0,4.0,84,0.00,,,0.00,,2013-02-23 16:01:00,
2013-02-23 10:11:00,25.0,21.0,-100.00,West,264,0.0,4.0,84,0.00,,,0.00,,2013-02-23 16:11:00,
2013-02-23 10:21:00,25.0,21.0,-100.00,West,264,0.0,4.0,84,0.00,,,0.00,,2013-02-23 16:21:00,
2013-02-23 10:52:00,27.0,21.0,-100.00,West,260,0.0,13.0,79,0.00,,,0.00,,2013-02-23 16:52:00,
2013-02-23 11:01:00,27.0,21.0,-100.00,West,260,0.0,13.0,79,0.00,,,0.00,,2013-02-23 17:01:00,
2013-02-23 11:11:00,27.0,21.0,-100.00,West,260,0.0,13.0,79,0.00,,,0.00,,2013-02-23 17:11:00,
2013-02-23 11:21:00,27.0,21.0,-100.00,West,260,0.0,13.0,79,0.00,,,0.00,,2013-02-23 17:21:00,
2013-02-23 11:52:00,28.0,21.0,-100.00,West,274,0.0,27.0,76,0.00,,,0.00,,2013-02-23 17:52:00,
2013-02-23 12:01:00,28.0,21.0,-100.00,West,274,0.0,27.0,76,0.00,,,0.00,,2013-02-23 18:01:00,
2013-02-23 12:12:00,28.0,21.0,-100.00,West,274,0.0,27.0,76,0.00,,,0.00,,2013-02-23 18:12:00,
2013-02-23 12:22:00,28.0,21.0,-100.00,West,274,0.0,27.0,76,0.00,,,0.00,,2013-02-23 18:22:00,
2013-02-23 12:52:00,29.0,21.0,-100.00,West,270,0.0,2.0,71,0.00,,,0.00,,2013-02-23 18:52:00,
2013-02-23 13:01:00,29.0,21.0,-100.00,West,270,0.0,2.0,71,0.00,,,0.00,,2013-02-23 19:01:00,
2013-02-23 13:11:00,29.0,21.0,-100.00,West,270,0.0,2.0,71,0.00,,,0.00,,2013-02-23 19:11:00,
2013-02-23 13:21:00,29.0,21.0,-100.00,West,270,0.0,2.0,71,0.00,,,0.00,,2013-02-23 19:21:00,
2013-02-23 13:52:00,30.0,21.0,-100.00,WSW,256,0.0,9.0,68,0.00,,,0.00,,2013-02-23 19:52:00,
2013-02-23 14:01:00,30.0,21.0,-100.00,WSW,256,0.0,9.0,68,0.00,,,0.00,,2013-02-23 20:01:00,
2013-02-23 14:11:00,30.0,21.0,-100.00,WSW,256,0.0,9.0,68,0.00,,,0.00,,2013-02-23 20:11:00,
2013-02-23 14:21:00,30.0,21.0,-100.00,WSW,256,0.0,9.0,68,0.00,,,0.00,,2013-02-23 20:21:00,
2013-02-23 14:53:00,30.0,20.0,-100.00,WSW,244,1.0,7.0,67,0.00,,,0.00,,2013-02-23 20:53:00,
2013-02-23 15:01:00,30.0,20.0,-100.00,WSW,244,1.0,7.0,67,0.00,,,0.00,,2013-02-23 21:01:00,
2013-02-23 15:11:00,30.0,20.0,-100.00,WSW,244,1.0,7.0,67,0.00,,,0.00,,2013-02-23 21:11:00,
2013-02-23 15:22:00,30.0,20.0,-100.00,WSW,244,1.0,7.0,67,0.00,,,0.00,,2013-02-23 21:22:00,
2013-02-23 15:52:00,29.0,20.0,-100.00,WSW,248,0.0,18.0,70,0.00,,,0.00,,2013-02-23 21:52:00,
2013-02-23 16:01:00,29.0,20.0,-100.00,WSW,248,0.0,18.0,70,0.00,,,0.00,,2013-02-23 22:01:00,
2013-02-23 16:11:00,29.0,20.0,-100.00,WSW,248,0.0,18.0,70,0.00,,,0.00,,2013-02-23 22:11:00,
2013-02-23 16:21:00,29.0,20.0,-100.00,WSW,248,0.0,18.0,70,0.00,,,0.00,,2013-02-23 22:21:00,
2013-02-23 16:52:00,27.0,21.0,-100.00,SW,236,0.0,15.0,77,0.00,,,0.00,,2013-02-23 22:52:00,
2013-02-23 17:01:00,27.0,21.0,-100.00,SW,236,0.0,15.0,77,0.00,,,0.00,,2013-02-23 23:01:00,
2013-02-23 17:11:00,27.0,21.0,-100.00,SW,236,0.0,15.0,77,0.00,,,0.00,,2013-02-23 23:11:00,
2013-02-23 17:21:00,27.0,21.0,-100.00,SW,236,0.0,15.0,77,0.00,,,0.00,,2013-02-23 23:21:00,
2013-02-23 17:52:00,26.0,21.0,-100.00,SW,234,2.0,21.0,80,0.00,,,0.00,,2013-02-23 23:52:00,
2013-02-23 18:01:00,26.0,21.0,-100.00,SW,234,2.0,21.0,80,0.00,,,0.00,,2013-02-24 00:01:00,
2013-02-23 18:11:00,26.0,21.0,-100.00,SW,234,2.0,21.0,80,0.00,,,0.00,,2013-02-24 00:11:00,
2013-02-23 18:22:00,26.0,21.0,-100.00,SW,234,2.0,21.0,80,0.00,,,0.00,,2013-02-24 00:22:00,
2013-02-23 18:52:00,25.0,21.0,-100.00,West,260,4.0,111.0,84,0.00,,,0.00,,2013-02-24 00:52:00,
2013-02-23 19:01:00,25.0,21.0,-100.00,West,260,4.0,111.0,84,0.00,,,0.00,,2013-02-24 01:01:00,
2013-02-23 19:11:00,25.0,21.0,-100.00,West,260,4.0,111.0,84,0.00,,,0.00,,2013-02-24 01:11:00,
2013-02-23 19:22:00,25.0,21.0,-100.00,West,260,4.0,111.0,84,0.00,,,0.00,,2013-02-24 01:22:00,
2013-02-23 19:52:00,25.0,21.0,-100.00,WSW,257,0.0,9.0,85,0.00,,,0.00,,2013-02-24 01:52:00,
2013-02-23 20:01:00,25.0,21.0,-100.00,WSW,257,0.0,9.0,85,0.00,,,0.00,,2013-02-24 02:01:00,
2013-02-23 20:11:00,25.0,21.0,-100.00,WSW,257,0.0,9.0,85,0.00,,,0.00,,2013-02-24 02:11:00,
2013-02-23 20:21:00,25.0,21.0,-100.00,WSW,257,0.0,9.0,85,0.00,,,0.00,,2013-02-24 02:21:00,
2013-02-23 20:52:00,25.0,20.0,-100.00,WSW,247,2.0,-999.0,80,0.00,,,0.00,,2013-02-24 02:52:00,
2013-02-23 21:02:00,25.0,20.0,-100.00,WSW,247,2.0,-999.0,80,0.00,,,0.00,,2013-02-24 03:02:00,
2013-02-23 21:11:00,25.0,20.0,-100.00,WSW,247,2.0,-999.0,80,0.00,,,0.00,,2013-02-24 03:11:00,
2013-02-23 21:21:00,25.0,20.0,-100.00,WSW,247,2.0,-999.0,80,0.00,,,0.00,,2013-02-24 03:21:00,
2013-02-23 21:52:00,23.0,18.0,-100.00,WSW,247,1.0,8.0,81,0.00,,,0.00,,2013-02-24 03:52:00,
2013-02-23 22:01:00,23.0,18.0,-100.00,WSW,247,1.0,8.0,81,0.00,,,0.00,,2013-02-24 04:01:00,
2013-02-23 22:11:00,23.0,18.0,-100.00,WSW,247,1.0,8.0,81,0.00,,,0.00,,2013-02-24 04:11:00,
2013-02-23 22:21:00,23.0,18.0,-100.00,WSW,247,1.0,8.0,81,0.00,,,0.00,,2013-02-24 04:21:00,
2013-02-23 22:52:00,21.0,17.0,-100.00,WNW,289,4.0,89.0,84,0.00,,,0.00,,2013-02-24 04:52:00,
2013-02-23 23:01:00,21.0,17.0,-100.00,WNW,289,4.0,89.0,84,0.00,,,0.00,,2013-02-24 05:01:00,
2013-02-23 23:11:00,21.0,17.0,-100.00,WNW,289,4.0,89.0,84,0.00,,,0.00,,2013-02-24 05:11:00,
2013-02-23 23:22:00,21.0,17.0,-100.00,WNW,289,4.0,89.0,84,0.00,,,0.00,,2013-02-24 05:22:00,
2013-02-23 23:52:00,19.0,16.0,-100.00,South,190,0.0,-999.0,89,0.00,,,0.00,,2013-02-24 05:52:00,